Find Kosmos-1869

NORAD ID: 18214 Int'l Des: 1987-062 Owner: GMS/YUZH Country: SU operational
LEOCIRCULARPOLAR

Live Position

Loading 3D Globe...

About Kosmos-1869

Description loading...

Upcoming Passes

Passes for default location (London). Set your location on the main map for personalized predictions.

Altitude History

Loading altitude history...

Two-Line Element Set

1 18214U 87062A 26105.66534957 .00005100 00000-0 14275-3 0 9996
2 18214 82.5120 164.2559 0015762 287.0840 72.8677 15.36265388 94960
Epoch: Apr 15, 2026 • Age: 13 hours

Current Status

Altitude 474.2 km
Velocity 7.63 km/s
Sub-Earth Point 57.40°N, 99.73°W
Launch Date Jul 16, 1987
Age 38.7 years
Type other

Technical Details

Classification Payload
Mass 1936.00 kg
Dry Mass 1936.00 kg
Total Mass 1936.00 kg
Length 5.00 m
Diameter 2.40 m
Span 21.50 m
Shape Cyl + 2 Pan + Ant
Manufacturer YUZH
Bus Type Okean
Phase Status In Orbit
Owner/State GMS/YUZH/SU

Most Searched